Location: Zagreb
(45.8000°N, 16.0000°E)
Time: 22:35:31
(UTC+01:00)

Tiros 1 despin weight - Pass Details

Date: 30 January 2020
Orbit: 594 x 642 km, 48.2° (Epoch: 24 February)

Event Time Altitude Azimuth Distance (km) Brightness Sun altitude
Rises 13:43:26 0° 287° (WNW) 2,883 ? 23.0°
Reaches altitude 10° 13:45:44 10° 287° (WNW) 1,985 ? 22.8°
Maximum altitude 13:50:18 86° 200° (SSW) 632 ? 22.5°
Drops below altitude 10° 13:54:56 10° 112° (ESE) 2,009 ? 22.1°
Sets 13:57:16 0° 112° (ESE) 2,921 ? 21.9°
